This is the latest recevied weather packets stored in our database for station/object WX4SGA. If no packets are shown the sender has not sent any weather packets the latest 10 day(s).
| Time | Temp. | Humidity | Pressure | Rain* | Wind** | Luminosity | Snow |
|---|---|---|---|---|---|---|---|
| 1777845845 | 23.33° C | 32% | 1018 hPa | 0 mm | - | 304 W/m² | - |
| 1777845542 | 23.89° C | 34% | 1018 hPa | 0 mm | - | 328 W/m² | - |
| 1777845239 | 23.89° C | 34% | 1018 hPa | 0 mm | - | 333 W/m² | - |
| 1777844936 | 23.89° C | 36% | 1018 hPa | 0 mm | - | 310 W/m² | - |
| 1777844633 | 23.89° C | 31% | 1018 hPa | 0 mm | - | 427 W/m² | - |
| 1777844331 | 22.78° C | 34% | 1018 hPa | 0 mm | - | 417 W/m² | - |
| 1777844028 | 22.78° C | 34% | 1018 hPa | 0 mm | - | 334 W/m² | - |
| 1777843725 | 23.33° C | 35% | 1018 hPa | 0 mm | - | 229 W/m² | - |
| 1777843422 | 23.89° C | 35% | 1018 hPa | 0 mm | - | 239 W/m² | - |
| 1777843120 | 23.89° C | 34% | 1018 hPa | 0 mm | - | 276 W/m² | - |
| 1777842816 | 23.89° C | 34% | 1018.3 hPa | 0 mm | - | 284 W/m² | - |
| 1777842511 | 23.33° C | 35% | 1018 hPa | 0 mm | - | 313 W/m² | - |
| 1777842209 | 23.33° C | 35% | 1018 hPa | 0 mm | - | 378 W/m² | - |
| 1777841904 | 23.89° C | 35% | 1018.3 hPa | 0 mm | - | 374 W/m² | - |
| 1777841600 | 23.89° C | 36% | 1018 hPa | 0 mm | - | 420 W/m² | - |
| 1777841298 | 24.44° C | 32% | 1018 hPa | 0 mm | - | 424 W/m² | - |
| 1777840995 | 23.89° C | 33% | 1018.3 hPa | 0 mm | - | 449 W/m² | - |
| 1777840692 | 23.89° C | 31% | 1018.3 hPa | 0 mm | - | 541 W/m² | - |
| 1777840389 | 23.33° C | 32% | 1018.3 hPa | 0 mm | - | 514 W/m² | - |
| 1777840086 | 23.33° C | 33% | 1018.3 hPa | 0 mm | - | 519 W/m² | - |
| 1777839784 | 22.78° C | 34% | 1018.3 hPa | 0 mm | - | 557 W/m² | - |
| 1777839482 | 22.78° C | 34% | 1018.6 hPa | 0 mm | - | 557 W/m² | - |
| 1777839179 | 22.78° C | 39% | 1018.3 hPa | 0 mm | - | 627 W/m² | - |
| 1777838876 | 23.33° C | 33% | 1018.6 hPa | 0 mm | - | 609 W/m² | - |
| 1777838572 | 22.78° C | 32% | 1018.6 hPa | 0 mm | - | 662 W/m² | - |
* Rain latest hour (hover to see other rain measurements)
** Current wind speed in m/s (hover to see current wind gust speed)